Proserpine, Australia

6:49 PM AEST on November 25, 2017 (GMT +1000)
Whitsunday

Weather History for YBPN - December, 2013

Change the Weather History Date:

Thursday, December 19, 2013

  Actual Average Record
Temperature  
Mean Temperature 78 °F -  
Max Temperature 86 °F - - ()
Min Temperature 70 °F - - ()
Cooling Degree Days 13    
Growing Degree Days 28 (Base 50)    
Moisture  
Dew Point 68 °F    
Average Humidity 75    
Maximum Humidity 94    
Minimum Humidity 48    
Precipitation  
Precipitation 0.24 in - - ()
Sea Level Pressure  
Sea Level Pressure 29.97 in    
Wind  
Wind Speed 11 mph ()    
Max Wind Speed 23 mph    
Max Gust Speed -    
Visibility 6.5 miles    
Events      
T = Trace of Precipitation, MM = Missing Value Source: Averaged Metar Reports

Daily Weather History Graph

Daily Weather History Graph

Search for Another Location

Airport or City:

Trip Planner

Search our weather history database for the weather conditions in past years. The results will help you decide how hot, cold, wet, or windy it might be!

Date:

Astronomy

Dec. 19, 2013 Rise Set
Actual Time 5:21 AM AEST 6:44 PM AEST
Civil Twilight 4:56 AM AEST 7:08 PM AEST
Nautical Twilight 4:27 AM AEST 7:38 PM AEST
Astronomical Twilight 3:57 AM AEST 8:08 PM AEST
Moon 8:02 PM AEST (12/19) 6:42 AM AEST (12/19)
Length of Visible Light 14h 11m
Length of Day
13h 22m
Full, 97% of the Moon is Illuminated
Dec 19
Full
Dec 25
Last Quarter
Jan 1
New
Jan 8
First Quarter
Jan 16
Full

Hourly Weather History & Observations

Time (AEST) Temp. Heat Index Dew Point Humidity Pressure Visibility Wind Dir Wind Speed Gust Speed Precip Events Conditions
12:00 AM 72 °F - 69 °F 85% 30.00 in - SSE 9.2 mph - -  
12:00 AM 73.4 °F - 68.0 °F 83% 29.98 in 6.2 mi SSE 9.2 mph - N/A   Mostly Cloudy
1:00 AM 73.4 °F - 68.0 °F 83% 29.95 in 6.2 mi South 10.4 mph - N/A   Mostly Cloudy
2:04 AM 71.6 °F - 69.8 °F 94% 29.95 in 6.2 mi SSE 5.8 mph - N/A   Overcast
3:00 AM 72 °F - 68 °F 83% 29.94 in - SSE 5.8 mph - -  
3:00 AM 71.6 °F - 68.0 °F 88% 29.92 in 6.2 mi SSE 6.9 mph - N/A   Scattered Clouds
4:00 AM 71.6 °F - 68.0 °F 88% 29.92 in 6.2 mi South 10.4 mph - N/A   Mostly Cloudy
5:00 AM 71.6 °F - 68.0 °F 88% 29.92 in 6.2 mi South 12.7 mph - N/A   Mostly Cloudy
6:00 AM 72 °F - 68 °F 84% 29.96 in - SSE 12.7 mph - -   Overcast
6:00 AM 71.6 °F - 68.0 °F 88% 29.95 in 6.2 mi SSE 12.7 mph - N/A   Mostly Cloudy
7:00 AM 71.6 °F - 69.8 °F 94% 29.98 in 6.2 mi SSE 9.2 mph - N/A   Mostly Cloudy
8:00 AM 77.0 °F - 71.6 °F 83% 29.98 in 6.2 mi SSE 10.4 mph - N/A   Scattered Clouds
9:00 AM 78 °F - 71 °F 72% 29.99 in 9 mi SSE 11.5 mph - -   Haze
9:00 AM 78.8 °F - 69.8 °F 74% 29.98 in 6.2 mi SSE 12.7 mph - N/A   Mostly Cloudy
10:00 AM 82.4 °F 86.3 °F 69.8 °F 66% 29.98 in 6.2 mi SE 19.6 mph - N/A   Scattered Clouds
11:00 AM 84.2 °F 87.3 °F 68.0 °F 58% 29.98 in 6.2 mi SE 21.9 mph - N/A   Scattered Clouds
12:00 PM 84 °F - 68 °F 50% 29.98 in - ESE 20.7 mph - -   Overcast
12:00 PM 84.2 °F 87.3 °F 68.0 °F 58% 29.98 in 6.2 mi ESE 20.7 mph - N/A   Mostly Cloudy
1:00 PM 82.4 °F 88.2 °F 73.4 °F 74% 29.95 in 6.2 mi East 20.7 mph - N/A   Scattered Clouds
2:00 PM 84.2 °F 87.3 °F 68.0 °F 58% 29.95 in 6.2 mi ESE 21.9 mph - N/A   Scattered Clouds
3:00 PM 84 °F - 67 °F 48% 29.95 in 11 mi ESE 20.7 mph - -   Haze
3:00 PM 86.0 °F 89.4 °F 68.0 °F 55% 29.95 in 6.2 mi ESE 20.7 mph - N/A   Scattered Clouds
4:00 PM 82.4 °F 85.4 °F 68.0 °F 62% 29.95 in 6.2 mi ESE 20.7 mph - N/A   Scattered Clouds
5:00 PM 82.4 °F 84.6 °F 66.2 °F 58% 29.95 in 6.2 mi SE 23.0 mph - N/A   Scattered Clouds
6:00 PM 74 °F - 70 °F 85% 29.98 in - ESE 9.2 mph - -  
6:00 PM 73.4 °F - 69.8 °F 88% 29.98 in 6.2 mi ESE 9.2 mph - N/A   Overcast
7:00 PM 75.2 °F - 66.2 °F 73% 29.98 in 6.2 mi ESE 12.7 mph - N/A   Scattered Clouds
8:00 PM 77.0 °F - 66.2 °F 69% 30.01 in 6.2 mi ESE 12.7 mph - N/A   Mostly Cloudy
9:00 PM 74 °F - 68 °F 76% 30.02 in - SSE 9.2 mph - -   Overcast
9:00 PM 73.4 °F - 68.0 °F 83% 30.01 in 6.2 mi SSE 9.2 mph - N/A   Mostly Cloudy
10:00 PM 73.4 °F - 66.2 °F 78% 30.01 in 6.2 mi South 10.4 mph - N/A   Mostly Cloudy
11:00 PM 73.4 °F - 66.2 °F 78% 30.04 in 6.2 mi South 10.4 mph - N/A   Scattered Clouds